Flag for Austria Weather past 2 weeks in Klagenfurt, Carinthia, Austria

Now
41 °F

Passing clouds.


Feels Like: 41 °F
Forecast: 35 / 44 °F
Wind: 1 mph from North

Location: Klagenfurt-Flughafen

Current Time: Dec 18, 2014 at 6:46:53 PM

Latest Report: Dec 18, 2014 at 5:50 PM


Visibility: N/A

Pressure: 30.12 "Hg

Humidity: 81%

Dew point: 36 °F

Location of KlagenfurtLocation

Historic Weather in Klagenfurt — Graph

°F

Klagenfurt temperature yesterday

Maximum temperature yesterday: 41 °F (at 12:50 PM)
Minimum temperature yesterday: 36 °F (at 12:20 AM)
Average temperature yesterday: 38 °F

Past Weeks' High & Low Weather Summary

 TemperatureHumidityPressure
High43 °F (Dec 5, 12:20 PM)100% (Dec 3, 11:20 PM)30.30 "Hg (Dec 3, 11:20 PM)
Low23 °F (Dec 10, 7:20 AM)65% (Dec 10, 2:20 PM)29.86 "Hg (Dec 16, 5:20 PM)
Average35 °F94%30.07 "Hg
* Reported Dec 3 5:20 PM — Dec 18 5:20 PM, Klagenfurt, Weather by CustomWeather, © 2014

Note: Actual official high and low records may vary slightly from our data, if they occured in-between our weather recording intervals... More about our weather records

Advertising

Klagenfurt weather history for previous 24 hours

 ConditionsComfort  
Time TempWeatherWind HumidityBarometerVisibility
5:20 PM
Dec 18
41 °FPassing clouds.2 mph81%30.12 "HgN/A
4:50 PM41 °FPassing clouds.1 mph87%30.09 "HgN/A
4:20 PM41 °FPassing clouds.3 mph87%30.09 "HgN/A
3:50 PM41 °FPartly sunny.3 mph87%30.09 "HgN/A
3:20 PM41 °FPartly sunny.2 mph87%30.09 "HgN/A
2:50 PM43 °FPartly sunny.3 mph81%30.09 "HgN/A
2:20 PM43 °FPartly sunny.2 mph81%30.09 "HgN/A
1:50 PM43 °FPartly sunny.3 mph81%30.09 "HgN/A
1:20 PM43 °FPartly sunny.1 mph81%30.09 "HgN/A
12:50 PM43 °FPartly sunny.2 mph81%30.12 "HgN/A
12:20 PM41 °FBroken clouds.2 mph87%30.12 "HgN/A
11:50 AM41 °FBroken clouds.1 mph87%30.12 "HgN/A
11:20 AM41 °FBroken clouds.1 mph87%30.12 "HgN/A
10:50 AM41 °FPartly sunny.2 mph87%30.12 "HgN/A
10:20 AM41 °FPartly sunny.2 mph93%30.12 "HgN/A
9:50 AM39 °FBroken clouds.5 mph93%30.12 "HgN/A
9:20 AM39 °FBroken clouds.2 mph100%30.09 "Hg4 mi
8:50 AM39 °FBroken clouds.2 mph93%30.09 "Hg4 mi
8:20 AM39 °FFog.No wind93%30.07 "Hg3 mi
7:50 AM39 °FFog.1 mph93%30.07 "Hg3 mi
7:20 AM39 °FFog.1 mph93%30.04 "Hg3 mi
6:50 AM39 °FFog.1 mph93%30.04 "Hg3 mi
6:20 AM39 °FFog.1 mph93%30.01 "Hg3 mi
5:50 AM39 °FFog.2 mph93%30.01 "Hg3 mi
5:20 AM39 °FFog.2 mph93%30.01 "Hg3 mi
4:20 AM39 °FFog.1 mph93%29.98 "Hg3 mi
3:50 AM39 °FFog.1 mph93%29.98 "Hg3 mi
3:20 AM37 °FFog.1 mph100%29.95 "Hg3 mi
2:50 AM37 °FPassing clouds.2 mph100%29.95 "Hg4 mi
2:20 AM39 °FPartly cloudy.2 mph93%29.95 "Hg4 mi
1:50 AM39 °FPartly cloudy.1 mph93%29.95 "Hg4 mi
1:20 AM39 °FPassing clouds.3 mph93%29.95 "Hg4 mi
12:50 AM39 °FPassing clouds.2 mph93%29.92 "Hg5 mi
12:20 AM39 °FPassing clouds.1 mph93%29.92 "Hg4 mi
11:50 PM
Dec 17
39 °FPassing clouds.2 mph93%29.92 "Hg5 mi
11:20 PM39 °FFog.2 mph93%29.92 "Hg2 mi
10:50 PM39 °FPartly cloudy.2 mph93%29.92 "Hg2 mi
10:20 PM39 °FDrizzle. Fog.1 mph93%29.92 "Hg3 mi
9:50 PM39 °FPassing clouds.2 mph93%29.92 "Hg4 mi
9:20 PM39 °FPassing clouds.2 mph93%29.92 "Hg4 mi
8:50 PM37 °FPassing clouds.2 mph100%29.92 "Hg4 mi
8:20 PM39 °FPassing clouds.1 mph93%29.92 "Hg5 mi
7:50 PM39 °FPartly cloudy.3 mph93%29.92 "Hg5 mi
7:20 PM37 °FPartly cloudy.1 mph100%29.92 "Hg6 mi
6:50 PM39 °FPartly cloudy.1 mph93%29.92 "HgN/A
6:20 PM39 °FPartly cloudy.1 mph93%29.92 "HgN/A
Weather by CustomWeather, © 2014

See weather overviewHow to use our weather pages